Wind_Speed
42 43 43 42 40 40 38 36 34 32 34 38 44 46 41 37 37 34 29 29 29 28 29 29 28 27 24 19 16 15 16 17 18 18 19 21 21 21 22 24 25 26 26 26 25 23 22 21 22 24 26 29 30 32 34 36 36 37 37 37 36 37 38 39 41 41 42 44 45 43 40 38 38 40 38 35 34 35 35 35 34 33 32 32 33 35 35
37 43 44 42 40 39 38 37 35 33 33 37 42 44 40 37 37 35 34 34 32 31 32 29 25 23 22 20 18 18 18 19 20 20 21 23 24 23 24 26 27 27 28 28 28 27 26 26 27 29 30 32 34 36 39 41 40 40 40 39 39 39 39 41 43 42 42 45 46 43 40 39 40 41 39 35 34 35 34 33 33 32 32 33 35 36 37
34 41 44 43 40 38 37 36 35 34 34 35 39 42 41 39 39 38 39 39 34 31 29 26 22 22 23 22 22 22 22 21 20 21 22 25 26 25 26 27 28 28 28 29 30 31 31 31 31 31 33 35 37 39 43 45 44 42 40 40 41 40 41 43 43 41 43 47 46 41 39 40 40 40 38 35 34 34 33 32 31 31 32 34 35 36 38
34 39 45 45 40 38 38 36 33 33 33 33 36 39 40 38 37 37 39 38 31 27 27 27 25 26 25 24 24 24 23 22 21 23 25 26 27 27 28 29 30 30 30 30 32 34 35 35 35 35 37 39 40 42 45 47 45 42 40 42 42 41 42 42 42 43 46 47 45 42 42 42 40 38 36 37 36 34 32 30 31 32 33 33 34 36 38
33 37 44 43 39 39 41 39 36 35 34 33 34 36 38 37 34 34 38 37 29 23 24 25 25 26 26 26 26 27 25 24 24 26 26 27 29 29 30 31 32 32 31 32 34 36 38 39 38 38 40 41 42 45 47 47 45 43 42 43 43 41 41 41 42 45 46 45 44 45 44 44 45 42 39 39 40 37 33 30 31 33 33 33 34 36 39
34 37 43 42 40 39 39 38 39 40 39 37 37 38 38 38 36 34 35 36 32 27 25 24 24 26 28 29 29 29 28 27 26 26 26 28 31 32 33 34 34 33 33 35 37 39 40 40 40 41 42 42 44 47 48 46 43 42 42 42 42 42 41 42 43 43 43 44 45 46 46 47 48 44 41 41 40 37 33 31 32 33 33 33 34 36 39
34 38 43 45 43 39 35 36 39 42 43 43 42 41 40 40 40 37 35 35 34 33 31 30 30 31 33 33 32 30 29 28 27 26 28 31 33 34 36 36 35 34 36 38 39 40 41 41 42 43 43 44 46 46 45 43 41 41 42 42 43 44 44 44 43 43 43 44 45 47 47 47 48 47 43 39 35 34 33 32 32 33 33 34 35 37 38
35 40 45 48 47 42 38 39 40 42 46 47 44 43 43 42 42 43 42 38 35 35 37 35 34 33 33 32 31 30 30 29 28 29 32 34 36 38 39 37 34 35 38 40 40 41 42 42 43 44 45 46 47 46 42 40 40 41 42 42 44 45 45 44 42 44 46 44 44 46 47 49 53 50 40 33 31 33 35 34 34 34 34 34 35 37 37
37 40 45 47 48 46 44 43 42 42 47 50 46 41 41 43 44 46 47 43 39 41 43 41 38 35 32 31 32 33 33 32 32 33 36 38 39 39 39 36 35 37 40 41 43 44 43 42 43 45 46 47 47 45 43 41 42 43 43 43 44 44 44 42 42 47 49 46 46 47 46 49 51 43 32 30 31 33 35 36 35 34 33 34 36 37 36
37 38 41 42 45 49 47 45 44 44 46 49 47 41 40 42 44 46 48 46 43 43 43 41 40 37 32 31 33 35 36 36 36 37 39 40 39 38 38 38 38 40 42 44 45 45 44 44 46 47 48 47 47 46 45 44 44 45 45 45 45 45 44 43 45 49 48 45 46 46 42 40 38 31 28 31 34 35 36 36 34 33 33 35 36 36 36
40 39 40 39 41 48 50 47 46 46 46 46 44 41 41 44 46 47 48 47 45 45 43 40 39 37 31 29 30 32 33 35 37 40 42 42 39 37 38 39 40 43 44 45 46 45 44 46 49 50 49 48 47 47 46 45 45 46 46 46 46 47 47 46 46 46 41 38 41 41 36 32 30 30 32 37 39 38 35 33 32 32 33 35 35 35 36
44 44 44 42 41 44 47 48 47 47 49 48 46 43 43 43 43 44 44 42 39 42 45 43 39 35 31 29 31 31 33 35 39 42 44 43 40 39 41 42 44 46 46 46 47 46 46 48 50 51 50 48 48 49 48 48 48 47 47 47 47 48 49 47 43 40 36 34 36 38 35 30 31 33 34 36 34 31 31 33 32 32 33 34 34 34 36
48 46 45 46 46 44 43 43 42 43 45 45 45 44 44 43 41 38 37 36 33 34 38 39 38 35 33 31 32 33 36 38 40 41 43 43 42 44 46 48 49 48 46 46 48 48 48 50 51 52 52 50 49 49 48 49 49 48 47 46 46 47 49 47 41 37 35 34 36 37 34 31 34 38 37 35 33 35 39 41 38 35 34 35 35 35 36
52 49 45 43 45 46 46 44 40 39 39 37 37 39 40 42 42 39 36 35 34 32 34 36 38 37 35 33 33 35 39 41 41 42 43 44 45 48 50 52 52 50 49 48 49 49 50 52 53 54 53 50 48 47 48 49 48 47 45 43 43 44 45 42 37 35 36 37 37 38 37 39 44 46 44 41 41 43 44 41 37 35 34 33 35 37 39
56 55 50 45 43 43 45 46 43 41 39 35 35 37 38 40 42 41 39 37 36 35 35 36 37 37 36 35 35 37 40 41 42 43 44 46 49 52 52 53 53 53 52 51 50 50 52 53 54 53 51 48 47 48 48 47 45 43 42 40 39 39 37 34 33 34 35 36 37 37 39 42 44 43 41 40 39 37 34 31 32 33 32 32 35 39 42
58 61 57 52 49 47 45 45 45 45 44 41 38 36 35 37 40 41 42 43 42 41 40 39 38 38 37 36 37 38 40 42 43 45 47 49 52 53 53 54 54 55 56 55 54 52 51 50 49 48 47 47 47 45 43 40 38 37 37 37 37 35 31 31 35 35 34 34 35 37 39 39 36 34 34 33 33 32 32 32 34 34 33 35 39 42 43
54 60 59 54 52 51 50 49 48 48 47 45 43 40 38 37 39 42 45 47 48 49 48 46 45 43 41 40 40 42 43 45 46 48 50 51 53 54 54 55 56 58 58 57 54 50 47 45 46 46 46 46 43 40 38 36 35 35 35 35 34 32 31 32 34 34 34 36 38 42 43 39 34 33 32 33 37 39 39 36 34 33 35 40 43 44 43
48 52 55 52 48 49 51 53 54 54 51 48 45 43 43 43 42 43 45 47 48 51 52 52 51 50 49 47 47 47 47 49 51 53 55 56 55 55 56 57 59 60 59 56 52 48 44 44 45 45 45 44 41 38 36 35 34 34 34 33 32 31 31 31 31 32 35 38 42 46 48 46 42 39 40 45 47 44 40 35 33 34 39 43 43 43 43
46 47 49 49 46 45 48 49 52 55 56 54 50 46 45 46 45 43 43 44 46 48 49 49 48 47 48 49 49 49 49 50 52 54 55 57 57 56 57 58 58 57 56 53 47 43 42 43 44 44 43 42 39 37 35 34 34 33 34 34 33 32 33 33 32 33 36 40 44 48 51 51 48 46 48 51 48 42 36 34 35 40 45 44 41 41 42
43 45 46 47 45 43 44 43 44 46 48 51 51 49 46 46 45 41 40 42 45 46 46 45 43 42 43 45 48 49 51 52 52 51 50 52 53 54 54 55 54 54 55 52 44 39 40 43 43 43 42 40 38 36 34 33 33 33 34 34 34 34 34 33 33 35 39 44 48 51 54 54 51 49 48 47 43 40 37 36 41 52 54 47 44 44 44
42 43 44 46 46 44 42 42 43 45 46 47 49 50 50 50 47 42 40 41 43 43 43 43 43 43 44 46 49 50 52 53 52 51 50 50 51 51 52 53 53 53 52 48 42 38 39 40 40 40 40 39 38 37 35 34 34 34 35 35 35 35 33 30 32 36 40 43 45 45 45 44 43 43 42 41 41 42 41 44 52 60 57 51 48 47 47
44 45 45 45 46 44 42 41 43 45 47 48 48 48 48 48 48 50 50 46 41 40 39 40 42 42 43 45 47 47 47 47 47 49 52 54 54 54 54 53 51 46 41 38 36 35 35 36 38 39 40 40 39 38 37 36 36 36 35 35 34 34 32 33 36 38 39 38 35 33 32 34 39 42 44 44 46 48 50 53 57 57 53 49 47 47 49
38 40 42 44 45 45 45 45 44 44 45 47 47 45 44 45 49 54 53 46 40 39 40 40 40 40 40 42 43 44 44 44 45 46 48 49 50 49 47 44 39 35 32 31 31 32 33 35 38 39 40 40 40 39 39 39 39 39 38 37 35 35 36 37 38 38 37 37 36 35 37 42 48 49 49 49 50 51 53 54 54 51 48 46 46 48 51
33 33 34 37 39 41 42 43 42 41 42 43 42 42 43 43 44 45 44 41 39 39 39 37 36 36 37 39 40 42 42 42 39 38 37 36 36 35 34 32 30 30 30 31 31 32 34 36 37 39 41 42 41 41 40 41 41 42 42 41 40 40 40 41 40 39 39 40 41 43 45 48 51 52 51 49 48 48 49 50 49 47 46 45 47 50 51
33 33 33 32 31 32 34 36 37 37 37 37 37 38 38 36 34 33 33 34 34 34 32 32 33 34 36 36 35 36 37 36 34 33 33 33 33 32 32 31 31 31 32 32 33 34 35 37 39 41 42 42 42 42 41 41 42 43 43 44 44 44 43 42 42 41 42 43 44 47 49 50 52 52 50 46 44 44 45 46 45 45 47 49 51 51 48
32 33 34 34 33 33 33 33 35 36 35 32 30 30 29 27 26 26 27 29 30 31 31 32 34 35 35 33 32 32 33 33 32 32 33 34 34 34 33 33 32 32 33 33 34 36 39 42 46 48 46 44 43 43 43 43 44 44 44 45 45 45 45 45 45 45 46 46 47 48 49 50 51 49 47 45 45 46 46 47 48 50 50 51 49 47 46
28 30 31 32 33 34 34 34 35 36 33 29 26 26 25 24 23 24 24 26 28 30 30 31 32 33 33 33 33 34 34 34 33 33 33 33 33 33 33 33 33 33 33 34 36 39 41 43 44 43 41 40 42 43 44 45 45 45 45 45 46 46 47 48 49 50 50 50 50 50 49 48 48 47 46 47 48 49 50 51 51 50 48 47 46 47 49
21 24 26 27 27 29 31 31 31 31 28 25 25 26 26 26 26 26 27 28 29 30 31 32 33 35 35 35 35 35 35 35 34 33 33 33 33 34 34 34 34 34 36 38 40 42 42 41 38 35 34 37 40 43 44 44 44 43 44 45 46 47 48 49 51 52 52 52 52 52 51 51 50 49 49 49 49 49 49 48 46 46 47 48 49 49 50
19 21 21 22 22 25 27 26 24 24 24 24 25 27 27 28 28 29 30 31 32 33 34 35 35 35 34 34 33 33 33 34 34 34 35 36 37 37 38 38 38 39 40 41 42 42 43 42 41 42 43 45 45 44 43 43 43 44 45 45 46 47 48 50 51 52 52 53 54 54 54 53 51 49 48 48 47 46 45 45 45 48 50 50 50 49 49
22 22 21 19 20 21 23 23 22 23 24 24 25 25 26 26 27 28 29 30 31 33 34 35 35 34 34 34 33 33 34 35 37 38 39 40 41 41 41 41 41 41 42 42 42 42 43 43 44 45 46 46 44 43 44 44 45 45 46 46 47 48 49 49 51 52 53 53 53 52 51 50 49 49 48 46 45 44 46 48 50 51 51 50 49 49 49
23 22 20 20 20 22 24 25 26 26 25 25 26 26 27 27 28 29 30 31 32 33 34 34 35 36 36 37 37 37 38 38 39 40 41 42 42 42 43 43 43 43 43 43 43 42 43 43 43 42 43 44 44 45 45 45 46 47 48 48 48 48 49 50 51 52 52 51 50 50 49 49 50 49 47 45 45 47 50 52 52 52 51 50 50 49 48
23 22 23 24 25 25 26 27 28 28 28 28 28 28 28 29 29 30 31 31 32 32 33 34 35 36 37 38 39 39 39 39 40 40 41 41 42 43 44 45 45 45 44 44 43 42 43 44 45 45 45 46 47 46 46 45 46 48 50 50 49 49 49 50 50 50 50 50 50 50 50 50 49 47 46 47 50 52 53 52 51 50 50 49 48 47 47
26 27 28 28 28 29 29 29 29 30 30 29 29 29 30 30 31 31 32 32 32 33 33 34 35 36 37 37 38 39 39 39 40 40 41 42 43 44 45 45 46 46 46 45 44 44 45 47 48 48 47 47 47 47 47 47 48 50 51 50 50 50 50 50 50 49 49 50 50 50 51 50 48 48 50 51 52 51 50 48 47 47 47 46 44 44 44
28 29 29 30 30 30 29 29 29 30 30 31 31 32 32 33 33 33 33 33 33 33 34 34 35 36 37 38 39 40 40 41 41 41 42 42 43 44 45 45 46 46 46 46 46 46 46 46 45 45 45 46 47 48 47 47 49 50 49 48 48 49 49 50 50 50 50 50 51 51 50 49 48 50 51 49 45 44 44 44 44 45 44 42 42 42 43
32 32 32 31 30 29 29 29 30 30 31 31 32 32 32 32 33 33 33 33 34 34 35 36 36 37 38 39 40 41 42 42 42 42 42 43 44 45 45 46 46 47 47 47 48 47 44 42 42 44 45 45 44 43 44 45 46 46 46 46 47 48 49 50 50 50 50 50 49 48 48 46 46 45 44 41 39 40 42 43 42 42 41 42 42 40 39
33 32 31 30 29 29 29 30 30 30 30 30 30 30 31 31 31 32 32 33 34 34 34 35 35 36 37 38 39 40 41 43 43 44 44 44 45 46 47 48 48 48 48 48 48 47 46 44 44 45 44 43 40 38 40 42 43 43 44 46 47 47 48 48 48 48 48 47 46 45 44 43 41 40 39 38 39 40 41 40 39 39 38 38 37 36 34
30 30 30 30 30 29 29 29 29 29 29 29 29 29 29 30 30 31 32 32 33 34 34 35 35 35 36 38 39 41 43 44 45 46 47 48 49 49 50 50 49 49 49 47 45 44 43 42 41 41 43 45 44 41 41 43 43 44 44 45 45 45 46 46 46 46 45 43 43 42 40 39 37 37 38 38 38 37 36 35 35 35 34 34 34 33 33
28 28 28 29 29 28 28 28 28 28 28 28 28 28 28 29 29 30 31 32 33 34 35 36 37 38 39 40 41 43 44 46 47 48 50 51 51 50 50 49 48 49 47 42 37 36 36 36 37 38 39 39 38 37 39 43 46 46 45 44 44 45 44 44 43 42 41 40 39 38 36 35 35 35 36 36 35 34 34 34 34 34 34 34 34 33 32
27 27 27 27 27 27 28 28 27 27 27 27 27 28 28 29 30 31 32 33 35 36 38 39 40 41 42 43 44 45 46 47 48 49 49 49 49 49 49 48 46 44 41 36 35 37 39 40 41 41 39 38 39 42 45 49 50 48 45 44 43 42 41 40 39 37 36 35 35 34 34 34 34 34 34 34 34 34 34 34 34 34 34 34 34 33 32
26 26 27 27 27 27 27 27 26 27 27 27 28 29 29 30 31 33 34 35 36 37 38 39 40 41 41 42 43 44 44 44 45 46 47 47 46 45 45 45 43 40 36 34 34 37 39 38 38 38 39 40 44 48 50 50 49 46 42 40 39 37 36 35 34 33 33 33 33 33 33 33 33 33 33 33 33 33 33 33 34 34 33 32 32 32 31
26 26 26 26 26 26 26 26 26 27 27 28 29 30 31 31 32 32 32 33 33 34 34 35 36 37 38 39 39 40 41 42 43 43 40 38 37 37 38 39 41 40 38 36 36 37 37 34 32 32 34 37 39 41 42 42 41 38 36 34 33 32 32 31 31 31 31 32 32 32 32 32 32 31 31 31 32 32 32 32 32 31 31 31 31 30 31
24 24 24 24 25 25 26 26 27 28 29 30 30 30 29 29 28 28 28 29 30 31 32 33 34 34 35 35 36 36 37 38 38 36 33 32 33 34 34 34 36 37 37 35 36 38 38 35 34 36 38 38 37 36 36 35 34 32 31 30 29 29 30 30 30 30 30 31 31 31 31 31 31 31 31 31 31 31 31 30 30 30 29 29 29 29 30
22 23 24 24 25 26 26 27 28 28 29 28 27 26 24 24 24 25 26 27 28 28 28 29 29 29 29 28 28 27 26 25 25 25 24 25 26 26 25 25 27 29 32 34 36 39 41 42 42 43 42 39 35 32 31 31 30 29 28 28 28 29 29 29 29 29 29 30 30 31 31 30 30 29 30 30 31 31 31 30 29 29 29 28 28 28 28
23 23 24 25 25 26 26 26 26 25 24 23 22 21 21 22 22 23 24 24 23 23 23 24 24 24 24 23 23 21 20 19 18 17 16 16 16 16 16 18 20 22 25 27 30 33 35 36 36 35 34 32 30 29 28 28 28 27 28 28 28 29 28 28 28 28 29 29 30 29 28 27 26 26 27 28 29 30 30 30 29 29 29 28 28 28 27
23 23 24 24 25 24 24 23 22 21 20 19 19 20 20 21 21 21 21 20 20 20 20 20 21 21 22 22 21 20 20 19 17 15 14 13 14 14 16 18 20 21 22 23 24 26 27 27 28 28 28 27 26 26 26 26 27 27 27 28 28 27 27 27 27 27 27 27 25 24 22 21 21 22 24 25 27 28 29 29 29 29 29 29 28 28 27
21 22 23 23 23 22 21 20 19 18 18 18 18 18 18 18 18 18 19 19 18 18 17 18 18 18 18 18 18 18 18 18 17 16 15 14 14 14 15 16 17 18 19 19 20 21 22 23 23 23 24 24 24 24 25 26 26 26 26 26 26 26 26 26 26 25 24 22 20 19 19 19 19 20 21 22 24 25 26 27 28 29 29 29 29 28 28
20 20 21 21 20 20 19 18 17 17 17 17 17 17 17 17 18 18 18 18 17 17 16 17 18 18 18 18 17 17 16 16 15 15 14 14 14 15 16 17 17 17 18 18 18 19 20 20 21 22 22 23 24 24 25 25 25 25 25 25 25 25 26 25 24 22 20 20 21 21 20 19 19 19 20 21 22 23 23 23 24 26 27 28 28 28 28
19 19 19 19 19 19 19 18 17 17 17 17 18 18 18 18 18 18 18 17 17 17 17 18 18 19 19 19 19 18 18 17 17 16 16 16 17 17 18 18 19 19 19 19 19 20 20 21 22 22 23 23 24 24 24 24 24 24 24 24 24 25 24 22 20 19 20 22 23 23 22 21 20 20 20 21 21 22 22 22 22 22 24 25 27 28 28
19 19 19 19 19 20 19 19 18 18 18 18 18 19 19 18 18 18 17 17 17 17 17 17 18 18 19 19 19 19 19 19 19 19 19 19 19 18 19 19 19 20 19 20 20 21 21 21 22 22 22 23 23 23 22 22 21 21 21 22 22 22 21 20 19 20 22 23 24 24 24 23 22 21 21 21 21 22 22 22 22 21 21 22 23 25 27
18 18 19 19 20 20 20 19 18 17 17 17 18 18 18 18 18 17 16 16 16 16 17 17 17 17 17 17 18 19 19 19 19 19 19 19 19 19 18 19 19 19 19 19 20 20 20 21 21 21 21 21 21 20 20 19 19 19 19 20 20 20 20 20 21 22 23 23 24 25 26 25 24 23 23 22 23 23 23 23 22 22 22 21 21 22 24
17 18 19 20 20 20 19 18 17 17 17 17 17 17 17 17 17 16 16 15 16 16 16 17 17 17 17 17 17 17 17 17 18 18 18 18 18 18 18 17 18 18 18 18 18 19 19 20 20 21 21 21 20 20 20 20 20 19 20 20 21 21 22 23 24 25 25 25 26 26 27 27 28 27 26 25 24 25 25 25 24 24 23 22 22 22 22
17 17 19 20 20 20 18 18 18 18 18 18 17 17 17 17 16 16 15 16 16 16 16 16 16 15 15 15 15 15 15 15 15 15 16 16 17 17 17 17 17 17 17 18 19 19 20 21 21 22 23 23 23 23 23 23 23 23 23 23 23 24 26 27 28 28 28 28 28 29 29 30 30 30 29 28 27 27 27 27 27 27 26 25 24 24 23
Wind_Direction
217 212 213 213 211 210 211 213 214 216 225 229 224 223 231 238 242 248 253 253 253 254 256 259 262 260 253 248 248 252 260 266 273 278 280 285 295 304 307 308 310 313 314 315 318 319 318 315 312 310 312 315 316 317 317 314 309 307 304 302 302 301 299 296 294 292 288 285 285 285 285 282 279 279 279 277 276 279 285 292 297 295 289 290 297 302 302
219 212 210 211 211 211 211 213 213 214 222 228 226 227 235 243 248 253 255 253 252 251 252 258 261 254 247 246 247 251 259 265 271 277 282 290 300 305 305 305 307 309 311 312 313 313 314 313 311 311 313 314 313 312 313 313 309 305 304 305 305 303 299 296 293 291 285 281 283 286 287 284 280 277 275 273 274 279 286 291 293 292 287 286 293 300 301
224 215 208 208 209 211 212 213 213 214 219 224 227 230 237 244 248 250 251 251 249 246 251 258 252 239 241 251 255 258 264 267 271 279 288 296 302 303 301 300 301 303 305 307 306 305 307 307 307 310 313 312 310 308 309 310 307 302 302 307 307 303 299 297 294 291 285 282 283 284 281 277 276 275 271 270 274 280 286 289 290 289 287 286 291 298 300
224 215 207 206 209 212 211 209 209 212 217 222 226 230 235 239 243 247 247 245 244 245 251 252 243 233 239 254 263 268 270 270 276 285 291 294 296 296 295 294 295 298 300 301 301 301 303 304 305 309 310 310 309 308 307 306 305 302 303 307 307 303 301 300 296 291 285 280 278 278 273 270 271 273 271 269 272 278 285 289 289 289 288 288 292 297 299
216 208 204 205 209 214 213 209 210 212 216 223 228 231 234 235 239 245 244 241 244 251 250 246 242 238 244 258 268 270 270 272 278 285 287 287 288 288 289 290 291 293 295 296 295 298 300 302 304 307 307 308 310 308 306 305 305 305 305 306 305 302 301 299 295 290 282 274 275 278 275 271 271 272 270 269 270 274 280 285 287 287 288 288 292 296 297
209 202 202 204 207 214 215 213 214 218 220 225 230 232 233 234 237 240 239 237 240 243 239 238 240 242 248 258 262 263 265 270 275 279 279 278 280 281 282 285 287 289 291 291 291 295 297 298 301 303 305 307 308 307 306 307 308 306 305 304 301 298 298 297 296 294 286 278 279 281 278 274 270 268 270 273 270 267 271 281 286 286 286 287 290 294 295
206 201 204 209 213 216 218 217 218 221 223 225 230 233 233 234 236 236 232 230 233 236 237 238 240 244 247 250 252 255 260 265 271 272 271 271 273 275 277 279 282 285 286 286 289 292 293 295 298 301 303 305 306 307 307 307 306 304 302 300 297 297 297 297 298 298 292 285 281 278 277 274 267 266 272 276 270 261 265 279 286 285 284 285 288 293 295
207 205 206 213 219 220 223 225 224 224 224 225 228 232 231 231 231 230 229 229 231 235 239 241 243 246 247 245 245 251 256 261 263 262 262 266 269 272 274 275 278 280 280 283 288 288 288 291 295 298 301 302 304 305 303 301 302 301 300 299 297 297 297 298 299 296 291 286 281 278 279 273 267 267 272 271 264 260 266 279 286 285 283 283 286 291 296
207 207 207 215 223 225 228 230 228 226 226 225 225 225 228 232 232 231 231 231 231 234 237 239 242 245 246 244 245 250 254 256 256 256 259 263 267 270 272 273 274 275 277 282 284 284 285 288 291 294 298 299 300 301 297 295 296 298 299 300 300 298 298 298 295 290 289 287 282 279 279 275 270 270 271 269 266 266 270 278 284 283 280 281 286 292 298
207 208 213 219 226 227 228 230 230 229 229 228 226 222 221 226 231 234 236 234 230 229 232 235 238 240 244 247 248 250 252 254 255 256 257 258 261 265 268 270 272 274 276 278 280 281 284 286 288 291 294 296 296 296 294 292 293 295 297 298 298 296 295 296 294 291 291 291 286 280 273 269 272 274 275 277 275 271 273 279 283 281 278 281 287 292 298
212 212 218 222 225 226 227 230 233 234 233 233 233 231 228 226 226 232 237 237 234 231 230 232 233 234 239 246 247 248 250 251 252 253 253 253 255 260 264 266 267 270 272 273 274 277 281 285 288 290 292 293 294 294 294 292 292 293 294 294 294 294 294 296 297 293 289 290 291 282 266 262 273 281 285 287 280 271 274 283 283 279 279 284 289 293 298
216 213 217 221 221 222 224 227 231 234 236 236 236 239 242 240 236 237 240 242 241 236 233 232 234 236 240 244 245 247 248 248 249 252 256 258 256 257 259 261 262 264 266 268 270 273 277 282 285 288 290 292 294 294 293 292 291 291 292 293 295 295 295 297 297 291 286 288 289 279 264 266 278 283 287 289 278 269 280 290 286 282 283 287 289 292 296
213 210 213 219 221 221 221 222 224 229 236 240 240 243 247 249 249 249 248 249 249 242 236 236 239 243 245 243 242 242 241 241 246 253 260 263 261 259 259 260 261 262 263 266 269 272 276 281 283 285 287 289 291 291 290 289 289 290 291 294 295 295 295 295 292 289 288 288 284 274 269 276 283 283 284 282 274 274 286 291 287 284 285 287 289 293 297
211 208 206 210 216 220 222 221 223 227 233 238 239 241 244 248 250 253 252 251 251 247 243 243 245 247 248 246 244 243 242 242 246 251 256 259 257 257 259 261 263 264 264 268 271 275 279 282 283 284 285 285 285 285 284 285 286 287 289 291 292 294 296 294 289 288 287 282 275 273 275 280 282 281 280 277 276 281 287 289 287 284 284 286 291 296 300
213 213 211 208 210 215 219 220 223 226 228 228 229 231 235 239 243 246 246 245 245 245 244 245 246 247 248 248 248 250 252 254 256 257 259 258 255 255 259 262 265 267 269 272 276 279 282 284 285 285 285 284 283 282 281 282 283 283 286 287 288 294 298 293 288 288 285 276 271 272 279 284 285 283 277 272 275 281 283 281 281 283 286 291 294 298 300
214 217 217 216 215 217 220 222 224 226 226 226 226 227 228 231 235 238 241 243 244 244 244 245 246 247 248 250 251 253 255 258 260 261 263 262 259 258 261 264 266 270 274 277 280 281 282 283 285 286 287 287 286 285 284 283 281 282 284 285 289 294 294 289 288 287 282 278 278 281 286 289 287 281 272 267 270 273 270 267 270 278 288 295 298 300 302
212 217 220 219 218 220 224 227 228 228 228 228 227 227 228 231 234 237 240 243 245 245 245 246 248 249 250 251 254 257 259 261 262 262 263 262 261 262 265 268 270 274 277 279 279 278 278 279 282 285 286 288 288 287 286 284 282 283 284 285 288 290 287 286 289 287 283 283 286 288 291 289 279 269 267 272 276 275 271 270 273 280 290 298 301 303 303
210 215 218 217 217 220 226 230 231 231 231 231 230 230 232 234 236 238 240 243 245 246 247 248 251 252 252 253 257 262 265 267 267 267 265 263 262 264 266 269 271 274 276 277 274 273 274 276 279 282 284 285 286 286 285 284 284 284 284 284 285 286 286 288 288 285 283 283 285 286 287 285 276 267 271 279 280 278 278 277 278 287 297 302 303 302 302
218 218 217 215 214 218 224 229 231 232 234 235 234 232 232 233 235 237 238 241 244 247 247 247 249 250 251 254 260 266 270 271 270 271 269 265 263 264 266 268 270 272 274 274 272 271 274 276 279 280 281 282 284 284 284 284 283 281 281 282 283 286 289 291 290 288 287 287 285 283 282 282 277 271 274 280 279 279 281 279 282 294 303 304 303 304 305
230 228 223 219 216 218 222 227 230 230 232 235 236 234 233 234 236 237 238 239 242 245 247 248 249 250 254 259 265 270 272 272 271 272 270 266 264 264 266 268 271 273 274 272 271 272 276 278 280 281 281 282 283 283 282 280 278 277 278 282 286 289 291 292 293 296 297 295 291 285 283 281 277 274 278 282 280 279 278 278 287 299 304 306 308 310 310
237 234 230 225 224 225 229 234 237 235 233 234 235 235 234 235 237 241 243 242 243 246 250 253 255 256 260 265 268 269 269 269 269 268 268 266 264 263 263 265 269 272 271 270 270 273 277 278 279 280 281 282 283 283 281 278 277 277 279 282 286 289 289 291 294 297 299 298 294 290 286 282 278 279 283 287 286 284 280 281 290 297 300 303 307 309 308
244 243 240 236 236 238 241 245 249 248 244 243 244 246 246 244 245 248 249 247 247 250 253 256 258 259 261 264 266 265 265 265 266 268 268 266 264 262 263 266 270 272 271 272 273 275 276 278 279 281 281 282 282 281 279 278 279 279 280 282 285 285 286 290 293 294 296 297 293 286 281 281 284 287 288 288 288 288 285 286 290 294 297 300 304 306 306
244 246 246 246 246 247 249 252 255 257 258 258 258 258 258 256 254 251 249 248 250 253 255 255 256 256 258 260 262 263 264 267 271 273 272 269 266 265 267 271 274 274 274 276 277 277 277 277 279 279 280 279 279 278 278 279 280 281 282 284 286 285 284 287 290 292 293 295 290 283 279 282 286 288 288 288 288 288 288 289 291 293 296 300 303 304 303
238 242 245 248 249 250 252 254 257 259 262 262 261 256 253 253 253 250 247 247 249 252 252 251 252 254 258 262 264 265 267 271 275 277 276 275 274 274 275 276 279 280 279 279 279 278 278 277 276 275 275 274 275 276 277 278 280 283 286 287 287 286 287 289 291 292 292 292 290 287 285 285 287 289 290 291 291 290 289 289 290 293 296 299 300 300 299
234 238 240 243 246 248 250 252 255 256 255 254 253 250 247 248 250 250 247 247 248 249 250 252 256 261 264 266 267 266 267 271 274 276 277 278 278 278 277 276 277 278 278 279 279 279 278 276 275 273 272 274 275 276 277 279 281 284 286 287 287 289 290 291 292 292 292 290 289 288 289 290 292 294 296 296 294 293 292 292 293 295 297 297 298 297 297
233 236 239 240 241 243 244 246 249 248 245 241 240 241 243 246 252 254 253 254 256 259 261 262 264 265 266 266 266 264 265 268 270 272 274 274 274 274 274 275 276 278 279 281 282 281 281 280 276 273 271 272 275 278 279 281 282 283 285 287 289 290 291 292 292 291 291 290 289 290 291 293 295 296 296 296 295 295 296 296 296 297 298 298 297 297 299
231 233 235 235 237 239 240 240 240 239 237 235 236 238 242 248 253 256 257 259 261 262 262 262 263 265 265 264 263 263 264 267 269 271 273 275 276 277 278 279 281 282 282 283 283 282 283 283 279 273 270 271 274 278 281 283 283 284 286 288 289 290 290 290 290 290 290 291 292 293 294 294 293 293 294 294 295 296 296 296 296 297 298 299 298 298 300
227 230 231 231 232 233 233 230 229 230 231 234 238 241 245 246 248 250 253 256 257 258 259 261 263 265 266 266 267 268 270 272 274 277 279 281 282 282 283 283 283 282 282 282 281 281 282 282 276 272 275 280 282 282 283 283 284 286 288 288 288 288 287 287 288 289 291 292 294 295 295 294 294 293 294 295 296 296 295 295 295 297 299 300 299 298 300
229 227 223 221 221 222 222 221 222 227 234 238 242 247 250 252 254 255 256 257 259 260 263 265 266 266 266 267 269 271 273 275 278 280 282 282 282 282 282 282 282 281 280 279 280 280 280 279 274 272 277 283 284 283 282 283 285 288 288 287 286 286 286 287 288 289 291 293 294 295 296 297 297 297 297 298 298 298 297 297 298 300 301 300 299 299 300
225 219 213 214 219 223 227 232 238 244 248 251 253 256 258 260 262 263 264 264 266 267 268 270 271 272 272 272 272 273 275 277 279 280 281 282 281 281 281 280 280 279 278 277 277 277 277 277 276 276 278 280 281 282 283 284 286 287 286 285 285 285 286 287 289 290 291 293 294 296 298 300 300 300 300 300 300 299 300 300 300 300 300 299 299 299 299
211 210 213 222 230 235 240 245 252 257 259 259 260 262 263 265 266 267 268 268 269 269 270 271 272 274 275 275 275 276 276 276 277 278 279 279 279 279 279 279 278 276 276 276 276 277 277 277 278 278 278 278 280 282 283 284 285 285 285 284 285 286 287 288 290 291 292 292 294 296 298 300 300 300 300 300 298 298 298 298 298 298 298 298 298 298 298
222 229 235 237 239 242 245 249 254 258 261 262 262 263 265 266 268 269 270 271 271 271 271 271 272 272 273 273 273 274 274 274 275 276 276 276 277 277 277 277 277 276 276 276 276 276 275 276 277 278 278 280 282 283 284 285 286 285 284 285 286 287 288 290 291 292 292 292 294 295 297 298 298 298 298 297 296 296 296 295 295 295 296 296 297 297 297
237 243 246 247 248 250 253 255 258 261 265 267 269 270 271 273 274 275 275 275 275 274 274 273 273 273 273 273 272 273 273 273 273 273 274 275 276 276 276 277 277 278 278 278 278 276 276 278 281 280 279 280 282 284 285 285 284 283 283 284 285 287 288 290 290 291 292 293 294 295 296 296 296 295 295 296 296 296 296 295 295 296 296 296 297 297 297
245 248 252 254 256 257 259 262 264 267 270 272 274 276 277 278 278 278 277 275 274 273 272 272 272 273 273 274 274 274 274 274 273 273 274 274 274 274 275 276 277 277 278 279 279 279 281 283 283 280 279 281 284 284 283 282 280 280 281 283 285 287 289 290 291 292 293 293 293 294 294 294 294 294 294 294 293 291 291 293 295 296 296 297 298 298 297
252 254 257 259 260 261 263 265 268 270 272 273 274 275 275 275 275 273 271 270 268 267 267 267 268 270 271 272 273 274 274 274 274 274 273 273 273 273 273 274 274 276 277 278 278 279 281 281 279 277 279 284 285 282 278 275 275 277 280 283 286 289 290 291 292 292 292 292 293 292 293 293 294 293 293 292 290 289 289 290 292 292 293 296 299 300 298
254 257 259 262 264 266 268 270 272 273 273 273 273 273 274 274 274 273 272 270 269 268 268 267 267 268 270 271 272 273 273 273 274 273 273 273 273 273 273 273 274 275 276 278 279 281 281 279 276 275 278 282 282 278 274 273 275 278 282 285 287 289 291 291 292 293 293 293 293 292 293 293 291 289 288 289 292 293 293 293 293 293 294 297 299 299 299
257 261 264 266 268 270 271 271 271 271 272 272 273 274 275 275 276 275 275 274 274 274 274 273 272 272 272 273 273 274 275 275 276 275 275 275 275 275 276 277 278 278 279 281 284 284 282 278 275 274 277 281 281 276 272 273 277 281 285 287 289 290 292 293 294 294 294 293 292 291 291 290 288 287 288 291 293 294 295 296 297 297 297 296 296 296 296
259 262 264 265 267 267 268 269 270 272 273 274 275 275 275 275 275 276 276 276 276 277 277 277 276 276 276 275 275 276 276 277 278 278 278 278 278 279 279 279 279 280 281 280 278 277 276 275 274 274 277 279 278 274 272 275 279 282 285 287 289 290 292 293 293 292 291 290 289 289 289 290 290 291 291 292 292 293 294 294 294 294 293 293 292 292 291
258 260 261 263 265 267 270 272 273 275 276 276 276 276 276 276 276 276 277 277 278 279 279 279 279 279 279 279 279 279 279 279 280 280 281 280 279 278 278 278 277 277 275 271 267 267 269 272 272 272 271 270 269 270 273 277 280 282 284 285 287 289 291 291 290 288 288 288 288 289 291 292 292 292 292 292 292 292 292 292 292 291 291 290 290 290 290
258 260 262 265 267 270 271 273 274 275 275 275 275 275 276 276 277 277 278 279 279 280 281 281 282 283 283 283 284 284 284 284 284 284 284 283 280 278 276 274 272 270 269 269 270 270 271 272 271 270 269 269 270 271 274 276 279 281 283 285 287 288 288 287 286 286 287 288 290 291 292 293 293 293 293 293 293 292 292 291 291 290 290 291 291 292 291
257 260 263 266 269 271 272 274 275 276 276 277 278 279 280 282 283 283 283 284 285 286 287 288 288 289 290 291 291 292 291 290 288 287 285 283 279 276 272 269 267 266 266 268 270 270 271 272 272 272 275 277 276 275 276 277 279 282 284 285 285 285 285 285 286 288 289 290 291 292 292 293 293 293 293 293 292 291 290 290 290 291 292 293 293 293 291
258 262 265 268 270 272 274 275 277 279 281 283 285 286 287 288 289 290 291 293 294 295 294 294 294 295 295 296 296 296 294 292 290 288 284 280 278 277 274 271 268 265 263 263 263 264 267 268 270 276 282 284 281 277 277 279 281 282 282 282 283 284 286 287 288 289 290 291 292 291 292 293 294 294 294 293 292 291 291 291 292 293 294 294 294 293 292
264 267 270 271 273 275 278 280 282 285 287 288 289 289 289 290 292 294 296 297 298 298 297 296 296 296 295 295 295 297 299 299 298 296 292 288 286 284 282 277 272 267 265 263 263 264 266 268 270 275 279 280 278 277 278 280 280 280 281 281 283 285 287 288 289 290 290 290 291 292 294 296 297 297 296 295 294 294 294 294 294 294 294 294 294 293 293
268 270 272 275 278 282 285 287 288 289 289 289 288 288 289 290 292 294 296 296 297 298 298 297 294 291 291 292 294 299 304 307 307 307 306 303 299 295 291 286 282 277 274 271 269 269 270 272 273 273 274 274 275 276 277 277 278 280 282 283 284 286 286 287 287 288 288 290 292 295 298 301 303 303 302 300 299 297 296 295 294 293 293 293 292 292 292
269 272 276 281 285 287 287 286 286 286 287 286 287 288 290 292 292 292 293 294 296 298 298 296 292 291 292 295 297 300 303 306 307 308 308 306 301 295 292 290 288 285 282 279 277 275 275 274 273 273 273 274 275 276 277 279 281 282 283 284 285 286 286 286 286 287 288 291 294 298 302 306 308 307 306 304 302 300 298 296 295 294 293 292 291 291 291
275 279 282 284 285 283 281 281 282 284 286 287 288 290 291 290 289 288 290 292 296 299 299 298 298 298 300 303 304 304 304 305 304 303 303 302 300 297 295 293 291 290 288 285 281 278 276 275 274 274 275 276 277 279 281 282 283 284 284 285 286 286 285 286 287 287 288 290 292 296 301 305 308 309 310 309 308 306 303 299 296 294 293 293 292 291 291
282 283 283 281 278 276 275 276 279 281 282 283 284 285 285 284 284 284 286 289 293 296 299 300 301 303 304 306 308 309 309 308 305 303 301 301 300 300 299 297 295 294 293 290 288 285 282 281 280 280 281 282 283 284 285 285 286 286 286 286 285 285 285 285 285 285 286 288 291 295 299 302 305 307 310 311 313 314 313 309 303 298 295 293 292 292 291
279 277 275 273 270 269 269 271 273 274 275 277 279 280 280 281 281 281 283 286 291 294 296 298 299 299 301 302 302 302 303 303 301 298 296 294 293 293 294 294 293 293 293 292 290 289 287 286 286 285 286 286 287 288 289 289 289 288 286 285 283 282 281 279 278 279 283 288 293 296 299 301 303 305 307 310 313 315 317 317 314 307 300 294 291 290 289
272 269 267 266 266 266 267 269 270 272 274 275 277 278 278 279 280 281 284 288 291 293 293 293 293 293 293 293 293 293 293 292 291 290 289 289 289 290 290 290 290 291 291 290 290 289 289 288 288 288 289 290 291 292 292 292 291 288 285 281 278 275 272 270 272 277 282 286 290 293 296 298 299 301 303 306 309 311 314 317 318 316 311 302 294 289 287
266 264 263 263 265 267 268 269 271 273 273 274 275 275 276 278 280 282 284 286 288 289 290 290 289 288 286 285 285 285 285 286 286 286 287 287 288 289 289 289 290 290 290 290 290 289 289 288 289 290 291 292 293 293 293 293 291 287 282 277 273 270 268 269 273 278 282 283 285 287 290 292 294 296 298 301 304 306 309 311 313 315 315 312 304 296 290
265 264 264 265 267 269 270 270 272 272 271 271 273 275 278 280 282 284 285 286 288 289 289 288 286 286 285 283 281 281 282 283 284 284 285 286 287 287 287 288 288 288 289 290 289 289 288 289 290 292 293 294 294 294 294 292 290 286 282 278 276 274 274 275 278 281 283 284 285 285 287 288 290 292 294 296 299 302 304 305 306 308 310 311 310 307 301
267 267 267 267 268 268 269 270 271 271 272 274 277 279 281 282 283 286 288 290 290 289 288 285 283 281 281 281 281 281 281 282 282 282 282 284 285 286 288 288 288 288 289 290 291 291 292 292 293 294 294 294 294 294 293 291 290 287 285 282 280 279 279 280 282 284 285 286 286 287 287 287 288 289 291 292 294 297 299 300 302 303 303 304 305 306 305
Height
5802 5808 5812 5815 5818 5820 5823 5824 5826 5829 5831 5832 5833 5835 5838 5840 5840 5842 5846 5848 5849 5851 5854 5855 5856 5858 5861 5862 5862 5862 5863 5863 5863 5864 5864 5865 5865 5866 5867 5866 5866 5866 5866 5866 5866 5867 5867 5867 5867 5867 5867 5866 5865 5864 5864 5863 5862 5860 5859 5858 5856 5855 5852 5850 5847 5846 5843 5839 5837 5837 5838 5838 5837 5836 5835 5836 5835 5835 5834 5832 5830 5828 5828 5827 5826 5825 5823
5799 5803 5808 5812 5815 5817 5819 5821 5823 5825 5827 5828 5830 5833 5835 5836 5837 5840 5842 5844 5845 5848 5850 5852 5854 5856 5857 5858 5858 5859 5860 5860 5860 5860 5861 5861 5862 5863 5863 5863 5863 5862 5862 5862 5862 5863 5863 5863 5863 5863 5863 5862 5861 5860 5859 5858 5857 5856 5854 5853 5852 5850 5848 5845 5843 5841 5838 5834 5832 5832 5833 5833 5831 5830 5830 5830 5830 5830 5829 5828 5826 5824 5823 5822 5821 5820 5819
5794 5798 5804 5808 5811 5813 5816 5817 5820 5822 5824 5826 5828 5831 5832 5833 5835 5837 5839 5840 5842 5845 5847 5849 5850 5852 5853 5854 5855 5856 5856 5857 5857 5857 5858 5858 5858 5859 5859 5859 5859 5859 5859 5860 5859 5859 5860 5860 5860 5860 5859 5858 5857 5856 5854 5853 5851 5850 5849 5848 5847 5846 5843 5839 5837 5835 5832 5827 5826 5826 5825 5824 5824 5824 5825 5826 5826 5826 5826 5824 5822 5820 5819 5818 5817 5815 5815
5789 5794 5800 5804 5808 5810 5811 5812 5815 5818 5820 5822 5825 5827 5828 5830 5832 5833 5834 5835 5839 5843 5845 5845 5846 5847 5849 5850 5852 5852 5853 5854 5854 5855 5855 5855 5855 5856 5856 5855 5855 5856 5856 5856 5856 5856 5856 5856 5855 5855 5854 5854 5853 5851 5849 5848 5845 5844 5843 5843 5842 5840 5837 5834 5832 5829 5824 5820 5819 5819 5819 5819 5818 5819 5821 5821 5822 5822 5822 5820 5817 5815 5814 5813 5812 5810 5810
5784 5790 5796 5801 5805 5805 5804 5807 5810 5813 5815 5818 5821 5823 5824 5826 5828 5829 5830 5833 5837 5841 5841 5841 5843 5844 5846 5848 5849 5849 5850 5851 5851 5852 5852 5852 5852 5852 5852 5852 5852 5852 5853 5852 5852 5852 5852 5852 5851 5851 5850 5849 5848 5846 5844 5843 5841 5839 5839 5839 5837 5835 5832 5830 5827 5825 5822 5820 5819 5819 5819 5819 5817 5816 5816 5817 5817 5817 5817 5815 5813 5811 5809 5807 5806 5805 5804
5782 5787 5793 5798 5799 5797 5799 5803 5807 5809 5811 5814 5816 5818 5820 5822 5824 5825 5827 5831 5835 5836 5837 5838 5839 5841 5843 5844 5845 5846 5847 5847 5848 5848 5848 5849 5849 5849 5849 5849 5849 5849 5849 5848 5848 5848 5848 5847 5847 5846 5845 5844 5844 5841 5839 5839 5838 5836 5835 5834 5832 5829 5827 5825 5823 5822 5822 5822 5821 5818 5816 5813 5811 5810 5810 5810 5811 5811 5811 5810 5808 5806 5804 5802 5801 5801 5799
5780 5784 5789 5792 5792 5793 5797 5801 5803 5805 5807 5809 5811 5813 5816 5818 5820 5822 5824 5827 5829 5831 5832 5834 5835 5836 5838 5839 5841 5842 5843 5844 5844 5844 5845 5845 5845 5845 5845 5845 5845 5845 5845 5844 5844 5844 5843 5842 5841 5841 5840 5840 5839 5837 5836 5834 5833 5832 5831 5829 5827 5824 5822 5820 5819 5817 5816 5816 5814 5811 5809 5807 5803 5803 5804 5804 5804 5805 5805 5804 5802 5800 5799 5798 5797 5796 5795
5777 5779 5783 5786 5788 5791 5794 5796 5798 5800 5802 5804 5807 5809 5811 5812 5815 5818 5819 5821 5824 5827 5828 5830 5831 5833 5834 5835 5837 5839 5839 5839 5840 5840 5841 5841 5841 5841 5841 5841 5842 5841 5840 5840 5840 5839 5838 5837 5836 5836 5835 5835 5834 5833 5832 5831 5830 5828 5826 5825 5822 5819 5817 5815 5814 5811 5808 5807 5806 5804 5804 5801 5796 5796 5798 5799 5798 5799 5799 5799 5797 5795 5794 5794 5793 5792 5790
5773 5776 5780 5782 5785 5787 5788 5790 5793 5795 5796 5798 5802 5805 5807 5808 5811 5813 5815 5817 5819 5821 5823 5825 5828 5830 5831 5832 5833 5834 5835 5835 5835 5836 5836 5836 5836 5836 5837 5837 5837 5836 5835 5836 5835 5834 5834 5833 5832 5832 5831 5831 5830 5829 5828 5827 5826 5824 5822 5820 5818 5815 5812 5810 5808 5805 5802 5801 5800 5800 5798 5794 5791 5792 5795 5794 5794 5795 5794 5793 5792 5791 5790 5789 5788 5787 5785
5771 5775 5777 5779 5780 5781 5783 5785 5787 5789 5791 5793 5797 5800 5802 5804 5807 5809 5811 5813 5815 5816 5819 5821 5824 5826 5828 5828 5829 5830 5830 5830 5831 5831 5831 5831 5831 5832 5832 5833 5833 5832 5832 5831 5830 5829 5829 5828 5828 5827 5827 5827 5826 5825 5824 5823 5821 5819 5818 5816 5813 5810 5808 5805 5801 5799 5798 5796 5794 5793 5793 5790 5788 5791 5793 5791 5790 5789 5788 5787 5787 5786 5786 5785 5784 5782 5780
5769 5772 5774 5775 5776 5777 5780 5781 5782 5785 5787 5789 5794 5798 5798 5799 5802 5804 5806 5808 5811 5812 5815 5817 5819 5821 5823 5824 5825 5826 5826 5826 5826 5826 5825 5826 5827 5827 5828 5829 5829 5828 5827 5826 5825 5825 5824 5823 5823 5822 5822 5822 5821 5820 5819 5818 5816 5814 5812 5810 5808 5805 5802 5800 5797 5794 5793 5792 5789 5787 5787 5786 5786 5789 5790 5787 5784 5782 5781 5782 5782 5782 5781 5780 5778 5777 5775
5765 5769 5770 5771 5773 5774 5777 5779 5780 5781 5783 5786 5791 5794 5794 5796 5799 5801 5802 5804 5806 5808 5810 5813 5814 5816 5818 5820 5821 5821 5822 5821 5820 5820 5820 5821 5822 5822 5823 5823 5823 5822 5822 5821 5820 5820 5820 5819 5818 5817 5817 5817 5816 5815 5814 5812 5810 5809 5807 5805 5803 5799 5796 5795 5794 5790 5787 5788 5785 5782 5781 5782 5783 5785 5786 5784 5780 5776 5776 5778 5778 5777 5777 5775 5773 5773 5772
5760 5764 5766 5768 5769 5771 5774 5776 5777 5777 5779 5784 5788 5789 5790 5793 5795 5796 5798 5800 5802 5804 5807 5809 5810 5812 5814 5815 5816 5816 5816 5815 5815 5816 5816 5817 5818 5817 5817 5817 5817 5816 5816 5815 5814 5815 5815 5815 5814 5813 5813 5813 5812 5810 5808 5806 5805 5804 5803 5800 5797 5794 5790 5789 5789 5786 5784 5784 5781 5776 5776 5778 5779 5780 5782 5782 5779 5776 5774 5774 5774 5773 5772 5770 5768 5768 5768
5755 5758 5761 5763 5765 5767 5770 5772 5773 5775 5778 5781 5783 5784 5787 5789 5790 5792 5795 5797 5798 5801 5803 5804 5806 5807 5809 5811 5811 5811 5811 5811 5811 5812 5812 5812 5813 5812 5812 5812 5811 5811 5810 5810 5810 5810 5810 5810 5809 5809 5808 5808 5808 5805 5803 5802 5801 5800 5798 5795 5792 5789 5786 5785 5784 5783 5781 5779 5776 5772 5773 5774 5775 5776 5777 5777 5776 5774 5772 5771 5769 5767 5766 5766 5764 5763 5762
5750 5753 5755 5759 5761 5762 5765 5768 5770 5772 5775 5777 5779 5781 5783 5786 5787 5789 5792 5794 5795 5798 5799 5800 5802 5803 5804 5806 5807 5807 5807 5807 5808 5808 5808 5808 5807 5807 5807 5806 5806 5806 5806 5806 5806 5805 5804 5804 5803 5802 5802 5802 5802 5800 5797 5796 5796 5795 5792 5790 5788 5785 5783 5782 5781 5780 5776 5773 5771 5771 5771 5771 5771 5771 5771 5771 5769 5768 5767 5766 5764 5762 5761 5762 5761 5759 5757
5746 5748 5751 5754 5757 5759 5762 5765 5767 5769 5770 5772 5775 5777 5779 5782 5784 5786 5788 5790 5792 5794 5796 5797 5799 5800 5801 5802 5802 5803 5803 5803 5804 5804 5803 5803 5802 5801 5801 5801 5801 5801 5801 5801 5801 5800 5799 5798 5797 5796 5796 5795 5795 5793 5791 5791 5790 5789 5787 5785 5782 5781 5780 5779 5778 5777 5772 5767 5766 5767 5767 5767 5765 5764 5763 5763 5762 5761 5761 5760 5759 5758 5758 5757 5756 5754 5752
5741 5744 5747 5751 5753 5756 5760 5761 5763 5765 5766 5768 5770 5773 5775 5778 5780 5782 5784 5785 5787 5789 5791 5792 5794 5796 5798 5798 5799 5799 5799 5799 5799 5799 5798 5797 5797 5797 5797 5796 5796 5795 5795 5795 5795 5794 5793 5792 5791 5791 5790 5789 5788 5787 5786 5785 5784 5783 5781 5779 5777 5775 5775 5774 5774 5773 5769 5765 5763 5761 5760 5759 5759 5758 5758 5757 5756 5755 5756 5755 5755 5754 5753 5752 5750 5748 5746
5739 5742 5745 5747 5749 5753 5755 5756 5757 5760 5762 5763 5765 5768 5770 5773 5775 5777 5779 5780 5781 5783 5785 5787 5789 5791 5793 5794 5794 5795 5796 5796 5795 5794 5793 5792 5792 5792 5791 5791 5790 5790 5790 5789 5789 5788 5787 5786 5786 5785 5784 5783 5782 5781 5780 5779 5779 5777 5776 5774 5772 5771 5770 5769 5769 5768 5766 5764 5761 5758 5756 5755 5755 5755 5754 5752 5750 5750 5751 5751 5750 5749 5748 5746 5744 5742 5740
5737 5739 5740 5742 5744 5747 5749 5751 5753 5755 5757 5759 5761 5764 5766 5767 5769 5771 5773 5775 5776 5777 5779 5781 5783 5784 5786 5787 5788 5789 5790 5791 5790 5790 5788 5787 5786 5786 5785 5784 5784 5784 5783 5783 5783 5782 5781 5780 5780 5779 5779 5778 5777 5776 5776 5775 5773 5772 5770 5769 5768 5766 5765 5764 5763 5763 5762 5760 5758 5755 5753 5751 5751 5751 5750 5748 5747 5746 5746 5745 5745 5744 5742 5740 5739 5736 5734
5733 5735 5736 5737 5739 5742 5744 5747 5749 5751 5753 5755 5758 5760 5761 5763 5764 5766 5768 5770 5771 5772 5773 5775 5777 5778 5780 5781 5782 5783 5784 5784 5784 5784 5783 5781 5780 5779 5778 5777 5777 5777 5777 5776 5776 5776 5775 5774 5774 5773 5773 5772 5771 5771 5771 5770 5768 5766 5765 5763 5762 5761 5759 5758 5758 5757 5756 5754 5751 5749 5746 5745 5746 5747 5746 5744 5743 5742 5741 5740 5739 5737 5736 5734 5731 5729 5726
5729 5730 5731 5733 5735 5737 5740 5742 5744 5746 5749 5751 5753 5754 5756 5758 5761 5763 5765 5766 5767 5768 5769 5770 5772 5773 5774 5776 5777 5778 5779 5779 5778 5778 5777 5775 5773 5772 5771 5770 5771 5772 5771 5770 5770 5770 5770 5769 5768 5767 5767 5767 5766 5766 5765 5763 5761 5760 5760 5759 5758 5756 5754 5753 5753 5753 5751 5748 5745 5742 5741 5743 5745 5745 5743 5741 5739 5738 5737 5736 5734 5732 5730 5727 5725 5722 5720
5725 5726 5727 5729 5731 5734 5736 5738 5739 5741 5744 5746 5748 5750 5752 5755 5757 5758 5759 5760 5761 5763 5764 5765 5766 5768 5770 5771 5772 5773 5774 5774 5773 5772 5770 5768 5767 5766 5766 5766 5767 5767 5766 5765 5765 5765 5765 5764 5763 5763 5762 5762 5761 5761 5759 5757 5756 5755 5755 5755 5754 5752 5751 5749 5748 5748 5747 5745 5742 5741 5741 5742 5742 5740 5738 5737 5735 5734 5732 5730 5728 5726 5723 5721 5719 5716 5714
5720 5721 5724 5726 5729 5731 5733 5735 5736 5737 5739 5741 5743 5745 5748 5750 5751 5751 5752 5754 5756 5758 5759 5760 5761 5763 5765 5766 5767 5768 5768 5768 5767 5766 5764 5764 5763 5763 5764 5764 5763 5763 5762 5762 5762 5761 5761 5760 5759 5758 5757 5757 5756 5755 5753 5752 5751 5750 5749 5749 5749 5748 5747 5745 5744 5743 5742 5741 5739 5738 5738 5737 5735 5734 5732 5730 5729 5727 5725 5723 5721 5719 5717 5714 5712 5711 5709
5716 5718 5720 5722 5725 5727 5729 5731 5733 5734 5735 5736 5738 5740 5742 5744 5744 5745 5747 5750 5752 5754 5755 5756 5757 5758 5760 5761 5762 5762 5762 5762 5762 5761 5760 5759 5759 5759 5759 5759 5758 5758 5758 5758 5758 5757 5756 5755 5754 5752 5751 5750 5749 5749 5748 5747 5746 5745 5744 5743 5743 5742 5741 5740 5739 5738 5737 5736 5735 5733 5732 5730 5729 5727 5725 5723 5722 5720 5719 5716 5714 5712 5710 5709 5707 5706 5704
5713 5715 5717 5719 5721 5723 5724 5727 5729 5730 5731 5732 5733 5735 5737 5739 5740 5741 5743 5744 5746 5748 5750 5751 5752 5753 5754 5755 5756 5756 5756 5757 5757 5756 5755 5754 5754 5754 5754 5754 5754 5754 5754 5753 5753 5752 5751 5749 5747 5744 5743 5743 5743 5742 5742 5741 5740 5739 5739 5737 5736 5735 5734 5733 5732 5732 5731 5730 5729 5727 5726 5724 5722 5720 5718 5716 5715 5713 5712 5710 5708 5706 5705 5703 5702 5700 5698
5709 5711 5714 5716 5717 5718 5720 5722 5725 5726 5727 5728 5729 5731 5733 5735 5736 5737 5738 5739 5741 5743 5744 5745 5746 5747 5748 5749 5750 5751 5751 5751 5752 5751 5751 5750 5749 5750 5750 5750 5750 5750 5749 5749 5748 5746 5745 5742 5738 5735 5735 5737 5737 5736 5736 5735 5734 5733 5732 5731 5729 5728 5728 5727 5726 5725 5724 5723 5722 5721 5720 5718 5716 5714 5712 5710 5708 5707 5705 5703 5701 5700 5698 5696 5695 5693 5691
5705 5708 5710 5712 5713 5715 5717 5718 5721 5722 5724 5725 5726 5728 5729 5731 5733 5734 5734 5735 5737 5738 5740 5741 5741 5742 5743 5744 5745 5745 5746 5746 5746 5746 5746 5745 5745 5745 5745 5744 5744 5744 5744 5743 5742 5740 5739 5738 5732 5728 5729 5731 5732 5730 5729 5728 5726 5725 5724 5723 5722 5722 5721 5720 5719 5717 5716 5715 5714 5714 5713 5711 5710 5708 5706 5703 5702 5700 5698 5696 5694 5692 5691 5689 5688 5686 5684
5702 5704 5706 5707 5709 5711 5713 5714 5716 5718 5720 5721 5722 5724 5725 5727 5729 5730 5731 5732 5733 5735 5736 5736 5737 5738 5738 5738 5738 5738 5738 5739 5739 5740 5740 5739 5739 5739 5739 5738 5739 5738 5738 5737 5735 5734 5733 5732 5728 5725 5724 5725 5725 5724 5723 5721 5720 5719 5718 5717 5716 5715 5714 5713 5711 5710 5709 5708 5707 5706 5705 5704 5702 5700 5698 5696 5694 5693 5691 5689 5687 5686 5684 5682 5680 5677 5675
5700 5701 5703 5704 5706 5708 5709 5710 5712 5714 5716 5718 5719 5721 5722 5724 5725 5726 5727 5728 5729 5730 5730 5731 5732 5732 5732 5732 5732 5732 5732 5732 5732 5733 5733 5733 5732 5732 5732 5732 5732 5732 5731 5730 5729 5728 5726 5725 5722 5720 5719 5719 5718 5717 5717 5716 5715 5714 5712 5711 5710 5708 5707 5706 5705 5704 5703 5702 5700 5699 5697 5695 5694 5693 5691 5689 5687 5685 5683 5681 5680 5678 5676 5674 5671 5669 5668
5698 5699 5701 5702 5703 5705 5706 5707 5709 5711 5714 5715 5717 5718 5720 5721 5722 5722 5723 5724 5725 5725 5725 5725 5726 5726 5726 5727 5727 5727 5727 5727 5727 5727 5726 5726 5726 5726 5725 5725 5725 5725 5724 5723 5722 5721 5719 5717 5716 5715 5714 5713 5712 5711 5710 5710 5709 5708 5706 5704 5703 5701 5700 5699 5698 5697 5696 5695 5693 5692 5691 5689 5687 5685 5684 5681 5679 5678 5676 5674 5673 5671 5669 5666 5664 5662 5661
5695 5697 5699 5700 5701 5702 5704 5705 5707 5709 5711 5712 5714 5715 5716 5717 5718 5718 5719 5720 5720 5720 5721 5721 5721 5721 5721 5721 5721 5721 5722 5722 5722 5721 5721 5720 5720 5719 5718 5718 5718 5717 5717 5715 5714 5713 5712 5710 5709 5708 5707 5706 5706 5705 5704 5704 5703 5701 5699 5698 5696 5695 5694 5693 5692 5691 5690 5689 5688 5687 5685 5683 5681 5679 5678 5675 5673 5672 5670 5668 5666 5665 5662 5660 5658 5657 5655
5693 5695 5696 5697 5699 5700 5702 5703 5705 5706 5708 5709 5710 5711 5712 5713 5714 5714 5714 5715 5715 5715 5716 5716 5716 5716 5716 5716 5716 5715 5715 5715 5715 5715 5714 5714 5713 5713 5712 5711 5710 5709 5709 5708 5707 5706 5705 5703 5702 5702 5701 5700 5699 5698 5698 5698 5696 5694 5692 5691 5690 5690 5689 5687 5686 5685 5684 5683 5682 5680 5679 5678 5676 5674 5672 5670 5668 5666 5664 5662 5660 5658 5656 5654 5652 5651 5649
5691 5692 5693 5694 5696 5698 5699 5701 5702 5703 5704 5704 5705 5706 5707 5708 5708 5709 5709 5709 5709 5709 5710 5710 5710 5710 5710 5710 5709 5709 5709 5709 5708 5708 5707 5707 5707 5706 5705 5704 5703 5702 5702 5702 5701 5700 5699 5697 5696 5695 5694 5694 5693 5692 5692 5692 5690 5687 5685 5685 5684 5683 5682 5681 5681 5679 5678 5677 5675 5674 5673 5672 5670 5668 5666 5664 5662 5659 5656 5654 5653 5652 5650 5648 5647 5645 5644
5687 5688 5690 5691 5693 5694 5695 5696 5697 5698 5698 5699 5700 5700 5701 5702 5702 5703 5703 5703 5704 5704 5703 5703 5703 5703 5703 5703 5702 5702 5702 5701 5701 5701 5701 5701 5700 5699 5698 5697 5696 5696 5696 5695 5695 5694 5693 5692 5690 5688 5687 5687 5687 5687 5686 5684 5682 5680 5680 5679 5678 5677 5676 5675 5675 5673 5672 5670 5669 5668 5667 5666 5664 5662 5659 5658 5656 5653 5650 5649 5647 5646 5643 5642 5641 5640 5638
5683 5685 5686 5688 5689 5690 5691 5692 5692 5693 5694 5694 5694 5695 5695 5696 5696 5697 5697 5698 5698 5698 5698 5698 5698 5697 5697 5697 5696 5695 5695 5694 5694 5694 5694 5694 5693 5693 5692 5691 5691 5690 5690 5689 5688 5687 5688 5687 5684 5682 5681 5681 5681 5680 5678 5676 5675 5674 5674 5674 5673 5671 5670 5669 5668 5667 5665 5663 5662 5661 5660 5659 5658 5655 5651 5650 5649 5648 5646 5645 5643 5641 5638 5637 5636 5634 5633
5680 5682 5683 5684 5685 5685 5686 5686 5687 5688 5688 5688 5689 5689 5689 5690 5690 5691 5691 5691 5692 5692 5692 5692 5692 5692 5692 5691 5690 5690 5689 5688 5687 5687 5687 5687 5686 5685 5685 5684 5684 5684 5683 5683 5681 5681 5681 5681 5679 5678 5677 5676 5674 5673 5670 5669 5668 5669 5668 5667 5667 5666 5664 5663 5661 5659 5658 5657 5655 5654 5654 5653 5651 5648 5645 5644 5643 5642 5641 5639 5637 5636 5634 5632 5631 5630 5629
5677 5678 5679 5679 5680 5680 5681 5682 5682 5682 5683 5683 5684 5684 5684 5684 5685 5685 5685 5685 5685 5685 5685 5685 5686 5686 5686 5685 5684 5684 5682 5681 5680 5680 5680 5679 5678 5677 5677 5676 5676 5676 5676 5675 5675 5674 5673 5673 5672 5672 5672 5670 5669 5667 5665 5663 5662 5663 5662 5662 5661 5660 5658 5657 5655 5653 5652 5651 5649 5649 5648 5647 5644 5642 5641 5639 5638 5637 5635 5633 5632 5630 5629 5628 5627 5626 5625
5673 5674 5675 5675 5675 5676 5677 5677 5678 5678 5678 5679 5679 5680 5680 5680 5680 5680 5680 5680 5679 5679 5679 5678 5678 5678 5678 5678 5677 5677 5675 5675 5673 5672 5671 5671 5670 5669 5668 5668 5668 5668 5668 5669 5668 5667 5665 5665 5665 5666 5666 5665 5664 5662 5660 5657 5656 5657 5657 5657 5656 5654 5652 5651 5649 5648 5646 5645 5644 5643 5642 5641 5639 5638 5636 5635 5634 5632 5631 5629 5627 5626 5625 5623 5622 5622 5621
5670 5671 5671 5672 5672 5673 5673 5674 5674 5675 5675 5675 5675 5675 5676 5676 5676 5676 5675 5675 5674 5674 5673 5672 5672 5671 5671 5670 5670 5669 5668 5667 5666 5665 5664 5662 5661 5660 5659 5659 5659 5660 5660 5661 5661 5660 5660 5660 5660 5660 5660 5660 5659 5657 5654 5652 5651 5652 5652 5651 5650 5649 5647 5646 5644 5643 5641 5640 5639 5638 5637 5636 5635 5633 5632 5630 5629 5628 5626 5624 5623 5622 5620 5619 5618 5617 5616
5667 5667 5668 5668 5669 5670 5670 5670 5671 5671 5671 5672 5672 5672 5672 5672 5672 5672 5671 5671 5670 5669 5668 5667 5667 5666 5665 5664 5663 5661 5660 5659 5658 5657 5655 5653 5652 5652 5652 5651 5651 5651 5652 5653 5653 5653 5652 5653 5654 5654 5654 5654 5653 5651 5649 5648 5647 5647 5646 5645 5645 5644 5642 5641 5640 5638 5637 5635 5634 5633 5632 5631 5630 5629 5627 5626 5624 5623 5621 5620 5618 5617 5616 5615 5614 5613 5612
5664 5664 5665 5666 5666 5667 5667 5667 5667 5668 5668 5668 5668 5668 5668 5668 5668 5667 5666 5666 5665 5664 5663 5662 5661 5660 5658 5657 5655 5654 5652 5650 5649 5649 5647 5644 5644 5645 5645 5644 5643 5643 5645 5647 5648 5647 5646 5646 5647 5647 5647 5647 5647 5646 5644 5643 5642 5641 5641 5640 5639 5638 5637 5636 5635 5634 5632 5631 5630 5629 5628 5627 5625 5624 5623 5621 5620 5618 5617 5615 5614 5612 5611 5610 5609 5608 5607
5662 5662 5663 5663 5664 5664 5664 5664 5664 5664 5664 5664 5664 5664 5664 5664 5663 5662 5661 5661 5660 5659 5657 5656 5655 5653 5651 5650 5649 5647 5645 5643 5642 5641 5640 5638 5638 5638 5638 5637 5637 5638 5639 5641 5642 5642 5641 5641 5641 5640 5641 5641 5640 5639 5638 5638 5637 5637 5636 5636 5635 5633 5632 5631 5630 5629 5628 5627 5626 5624 5623 5622 5621 5620 5618 5617 5615 5613 5612 5611 5609 5608 5607 5606 5605 5604 5603
5659 5660 5660 5660 5661 5661 5661 5661 5661 5661 5661 5661 5660 5660 5660 5660 5659 5658 5657 5656 5655 5653 5652 5651 5650 5648 5647 5646 5645 5643 5641 5639 5638 5636 5635 5634 5634 5633 5633 5633 5633 5634 5635 5635 5636 5636 5636 5636 5635 5635 5635 5635 5634 5634 5633 5633 5633 5632 5632 5631 5630 5629 5628 5627 5626 5625 5624 5623 5621 5620 5619 5618 5616 5615 5613 5612 5610 5608 5607 5606 5605 5604 5603 5602 5601 5600 5599
5657 5657 5657 5658 5658 5658 5658 5657 5657 5657 5657 5657 5657 5656 5656 5656 5655 5654 5653 5652 5651 5650 5649 5648 5647 5646 5645 5643 5642 5640 5638 5637 5635 5634 5632 5631 5631 5631 5631 5631 5631 5631 5631 5631 5631 5631 5631 5631 5630 5630 5630 5630 5630 5630 5629 5629 5629 5628 5627 5626 5626 5625 5624 5623 5622 5621 5620 5619 5617 5616 5615 5614 5612 5611 5609 5607 5605 5604 5602 5602 5601 5600 5599 5598 5597 5596 5596
5655 5655 5655 5655 5655 5655 5654 5654 5654 5654 5654 5653 5653 5653 5652 5652 5652 5651 5650 5649 5648 5648 5647 5646 5645 5643 5642 5640 5639 5637 5636 5635 5633 5632 5631 5630 5629 5629 5629 5629 5629 5629 5628 5628 5628 5627 5627 5627 5627 5626 5626 5626 5626 5626 5626 5625 5625 5624 5623 5622 5621 5621 5620 5619 5619 5617 5616 5615 5614 5613 5612 5611 5609 5607 5605 5603 5602 5600 5598 5597 5596 5595 5595 5594 5593 5592 5592
5653 5653 5653 5652 5652 5652 5652 5651 5651 5651 5651 5651 5650 5650 5650 5649 5649 5649 5648 5647 5646 5645 5644 5643 5642 5641 5639 5638 5636 5635 5634 5632 5631 5630 5629 5629 5628 5628 5627 5627 5627 5626 5626 5626 5625 5625 5625 5624 5624 5624 5623 5623 5623 5623 5622 5621 5620 5619 5619 5618 5617 5617 5616 5615 5614 5614 5613 5612 5611 5611 5610 5608 5607 5605 5603 5601 5599 5597 5595 5594 5592 5591 5590 5590 5589 5588 5588
5650 5650 5650 5649 5649 5649 5649 5649 5649 5649 5649 5649 5648 5648 5648 5647 5647 5646 5646 5645 5644 5643 5642 5641 5639 5638 5637 5636 5634 5633 5632 5631 5630 5629 5628 5627 5627 5626 5625 5625 5624 5624 5624 5623 5623 5622 5622 5621 5621 5620 5620 5620 5619 5619 5618 5617 5616 5616 5615 5614 5614 5613 5612 5611 5611 5610 5609 5609 5608 5607 5607 5605 5604 5602 5600 5598 5596 5594 5592 5591 5589 5588 5586 5585 5585 5584 5583
5647 5647 5647 5647 5646 5647 5647 5647 5647 5647 5647 5647 5646 5646 5646 5645 5644 5644 5643 5642 5641 5640 5639 5638 5637 5636 5634 5633 5632 5631 5630 5629 5628 5627 5626 5626 5625 5624 5623 5622 5622 5621 5621 5620 5620 5619 5618 5618 5617 5617 5616 5616 5615 5615 5614 5613 5613 5612 5611 5611 5610 5609 5609 5608 5608 5607 5606 5605 5604 5603 5602 5601 5600 5599 5597 5595 5593 5591 5589 5588 5586 5585 5583 5582 5581 5580 5579
5644 5644 5644 5644 5644 5645 5645 5645 5645 5645 5645 5644 5644 5643 5643 5642 5641 5641 5640 5639 5639 5638 5637 5636 5634 5633 5632 5631 5630 5629 5628 5627 5626 5625 5624 5623 5622 5622 5621 5620 5619 5619 5618 5618 5617 5616 5615 5614 5614 5613 5613 5612 5612 5611 5610 5609 5609 5608 5608 5607 5606 5605 5605 5605 5604 5604 5603 5602 5601 5599 5598 5597 5597 5595 5594 5592 5591 5589 5587 5585 5583 5582 5580 5579 5578 5577 5576
5641 5642 5642 5642 5642 5642 5643 5643 5642 5642 5642 5642 5641 5640 5640 5639 5638 5637 5637 5636 5635 5634 5633 5633 5632 5631 5630 5629 5627 5626 5625 5624 5623 5622 5621 5620 5619 5619 5618 5617 5616 5616 5615 5615 5614 5613 5612 5611 5610 5610 5609 5609 5608 5607 5606 5606 5605 5604 5604 5603 5602 5602 5602 5601 5601 5600 5600 5599 5597 5596 5595 5594 5593 5592 5591 5589 5588 5586 5585 5583 5581 5579 5578 5576 5575 5574 5573
5640 5640 5640 5640 5640 5640 5640 5640 5639 5639 5639 5638 5638 5637 5636 5635 5635 5634 5633 5632 5632 5631 5630 5629 5628 5627 5627 5626 5625 5624 5623 5622 5621 5620 5618 5617 5616 5615 5615 5614 5613 5612 5612 5611 5610 5609 5609 5608 5607 5606 5606 5605 5604 5604 5603 5602 5602 5601 5600 5600 5599 5599 5598 5598 5597 5596 5596 5595 5594 5592 5591 5590 5589 5588 5587 5586 5584 5583 5581 5580 5579 5577 5575 5574 5572 5571 5569
5638 5638 5638 5638 5638 5637 5637 5637 5636 5636 5635 5635 5634 5633 5633 5632 5631 5630 5630 5629 5628 5627 5627 5626 5625 5624 5623 5622 5621 5620 5619 5618 5618 5617 5616 5615 5614 5613 5612 5611 5610 5610 5609 5608 5607 5606 5605 5605 5604 5603 5602 5602 5601 5600 5599 5599 5598 5597 5596 5596 5596 5595 5594 5593 5593 5592 5591 5590 5589 5588 5587 5586 5584 5583 5582 5581 5580 5579 5578 5576 5575 5574 5573 5571 5570 5568 5567